This is the latest recevied weather packets stored in our database for station/object N7WSS. If no packets are shown the sender has not sent any weather packets the latest 10 day(s).
| Time | Temp. | Humidity | Pressure | Rain* | Wind** | Luminosity | Snow |
|---|---|---|---|---|---|---|---|
| 1787684868 | 37.78° C | 27% | 1014.3 hPa | 0 mm | - | - | - |
| 1787684568 | 37.78° C | 27% | 1014.5 hPa | 0 mm | - | - | - |
| 1787684263 | 37.78° C | 27% | 1014.5 hPa | 0 mm | - | - | - |
| 1787683959 | 37.22° C | 27% | 1014.4 hPa | 0 mm | - | - | - |
| 1787683658 | 37.78° C | 27% | 1014.5 hPa | 0 mm | - | - | - |
| 1787683353 | 38.33° C | 27% | 1014.8 hPa | 0 mm | - | - | - |
| 1787683050 | 38.33° C | 26% | 1014.7 hPa | 0 mm | - | - | - |
| 1787682746 | 37.78° C | 27% | 1015.1 hPa | 0 mm | - | - | - |
| 1787682441 | 37.78° C | 27% | 1014.9 hPa | 0 mm | - | - | - |
| 1787682138 | 36.67° C | 28% | 1015.2 hPa | 0 mm | - | - | - |
| 1787681833 | 37.78° C | 28% | 1015.3 hPa | 0 mm | - | - | - |
| 1787681532 | 37.78° C | 27% | 1015.3 hPa | 0 mm | - | - | - |
| 1787681227 | 37.22° C | 29% | 1015.4 hPa | 0 mm | - | - | - |
| 1787680923 | 36.67° C | 28% | 1015.4 hPa | 0 mm | - | - | - |
| 1787680617 | 36.67° C | 29% | 1015.5 hPa | 0 mm | - | - | - |
| 1787680316 | 36.67° C | 28% | 1015.6 hPa | 0 mm | - | - | - |
| 1787680015 | 37.22° C | 28% | 1015.5 hPa | 0 mm | - | - | - |
| 1787679714 | 37.22° C | 27% | 1015.5 hPa | 0 mm | - | - | - |
| 1787679410 | 36.67° C | 29% | 1015.6 hPa | 0 mm | - | - | - |
| 1787679106 | 36.67° C | 29% | 1015.7 hPa | 0 mm | - | - | - |
| 1787678805 | 36.11° C | 30% | 1015.7 hPa | 0 mm | - | - | - |
| 1787678500 | 36.11° C | 30% | 1015.9 hPa | 0 mm | - | - | - |
| 1787678201 | 37.22° C | 30% | 1015.9 hPa | 0 mm | - | - | - |
| 1787677896 | 36.67° C | 28% | 1015.6 hPa | 0 mm | - | - | - |
| 1787677595 | 36.67° C | 30% | 1015.7 hPa | 0 mm | - | - | - |
* Rain latest hour (hover to see other rain measurements)
** Current wind speed in m/s (hover to see current wind gust speed)